Hourly Weather Tatabanya

Today, 27 January, Wednesday

Time Temperature Precipitation Wind Pressure Humidity
00:00 -3°C° 0.1 mm 4 mps 739 mmHg 93%
01:00 -3°C° 0.1 mm 4 mps 739 mmHg 92%
02:00 -3°C° 0 mm 4 mps 739 mmHg 91%
03:00 -4°C° 0 mm 5 mps 739 mmHg 90%
04:00 -4°C° 0 mm 5 mps 739 mmHg 89%
05:00 -4°C° 0 mm 5 mps 739 mmHg 87%
06:00 -4°C° 0 mm 5 mps 739 mmHg 86%
07:00 -5°C° 0 mm 5 mps 739 mmHg 84%
08:00 -4°C° 0 mm 5 mps 739 mmHg 80%
09:00 -3°C° 0 mm 6 mps 739 mmHg 76%
10:00 -3°C° 0 mm 6 mps 739 mmHg 71%
11:00 -2°C° 0 mm 6 mps 739 mmHg 69%
12:00 -2°C° 0 mm 6 mps 739 mmHg 67%
13:00 -1°C° 0 mm 6 mps 739 mmHg 64%
14:00 -1°C° 0 mm 5 mps 739 mmHg 66%
15:00 -1°C° 0 mm 4 mps 738 mmHg 68%
16:00 -2°C° 0 mm 4 mps 738 mmHg 71%
17:00 -2°C° 0 mm 4 mps 738 mmHg 74%
18:00 -2°C° 0 mm 3 mps 738 mmHg 77%
19:00 -4°C° 0 mm 3 mps 738 mmHg 81%
20:00 -4°C° 0 mm 3 mps 738 mmHg 81%
21:00 -4°C° 0 mm 3 mps 738 mmHg 82%
22:00 -4°C° 0 mm 3 mps 738 mmHg 82%
23:00 -4°C° 0 mm 3 mps 738 mmHg 83%

Tomorrow, 28 January, Thursday

Time Temperature Precipitation Wind Pressure Humidity
00:00 -4°C° 0 mm 3 mps 738 mmHg 83%
01:00 -4°C° 0 mm 3 mps 739 mmHg 84%
02:00 -4°C° 0 mm 3 mps 738 mmHg 84%
03:00 -4°C° 0 mm 3 mps 738 mmHg 84%
04:00 -4°C° 0 mm 3 mps 738 mmHg 85%
05:00 -4°C° 0 mm 3 mps 738 mmHg 85%
06:00 -4°C° 0 mm 3 mps 738 mmHg 86%
07:00 -4°C° 0 mm 3 mps 738 mmHg 86%
08:00 -2°C° 0 mm 3 mps 738 mmHg 87%
09:00 -3°C° 0 mm 4 mps 738 mmHg 87%
10:00 -2°C° 0 mm 4 mps 738 mmHg 87%
11:00 -1°C° 0.1 mm 4 mps 737 mmHg 88%
12:00 0°C° 0.1 mm 3 mps 737 mmHg 88%
13:00 0°C° 0.1 mm 3 mps 737 mmHg 89%
14:00 +1°C° 0 mm 3 mps 736 mmHg 85%
15:00 +2°C° 0 mm 2 mps 736 mmHg 82%
16:00 +2°C° 0 mm 2 mps 735 mmHg 78%
17:00 +1°C° 0 mm 2 mps 735 mmHg 75%
18:00 +1°C° 0 mm 2 mps 734 mmHg 73%
19:00 +1°C° 0 mm 2 mps 734 mmHg 70%
20:00 +1°C° 0.1 mm 2 mps 733 mmHg 73%
21:00 +1°C° 0.1 mm 2 mps 733 mmHg 76%
22:00 0°C° 0.1 mm 3 mps 732 mmHg 79%
23:00 0°C° 0.5 mm 3 mps 732 mmHg 82%

Day after tomorrow, 29 January, Friday

Time Temperature Precipitation Wind Pressure Humidity
00:00 0°C° 0.5 mm 3 mps 731 mmHg 85%
01:00 0°C° 0.5 mm 3 mps 731 mmHg 88%
02:00 -1°C° 0.3 mm 4 mps 731 mmHg 88%
03:00 -1°C° 0.3 mm 4 mps 730 mmHg 87%
04:00 0°C° 0.3 mm 4 mps 730 mmHg 87%
05:00 0°C° 0.2 mm 4 mps 730 mmHg 88%
06:00 +1°C° 0.2 mm 3 mps 730 mmHg 90%
07:00 +1°C° 0.2 mm 3 mps 730 mmHg 91%
08:00 +1°C° 0.3 mm 3 mps 730 mmHg 91%
09:00 +1°C° 0.3 mm 3 mps 730 mmHg 91%
10:00 +2°C° 0.3 mm 2 mps 731 mmHg 90%
11:00 +2°C° 0.4 mm 2 mps 730 mmHg 89%
12:00 +3°C° 0.4 mm 2 mps 730 mmHg 88%
13:00 +3°C° 0.4 mm 2 mps 729 mmHg 87%
14:00 +4°C° 0.1 mm 2 mps 728 mmHg 87%
15:00 +3°C° 0.1 mm 3 mps 728 mmHg 86%
16:00 +4°C° 0.1 mm 3 mps 727 mmHg 85%
17:00 +4°C° 0.1 mm 4 mps 727 mmHg 86%
18:00 +3°C° 0.1 mm 4 mps 726 mmHg 87%
19:00 +2°C° 0.1 mm 5 mps 726 mmHg 88%
20:00 +3°C° 0.7 mm 6 mps 726 mmHg 87%
21:00 +3°C° 0.7 mm 7 mps 726 mmHg 85%
22:00 +4°C° 0.7 mm 7 mps 726 mmHg 84%
23:00 +4°C° 0 mm 7 mps 726 mmHg 83%

30 January, Saturday

Time Temperature Precipitation Wind Pressure Humidity
00:00 +4°C° 0 mm 8 mps 726 mmHg 82%
01:00 +4°C° 0 mm 8 mps 726 mmHg 81%
02:00 +3°C° 0 mm 7 mps 726 mmHg 81%
03:00 +3°C° 0 mm 7 mps 726 mmHg 82%
04:00 +3°C° 0 mm 6 mps 726 mmHg 83%
05:00 +3°C° 0 mm 6 mps 727 mmHg 84%
06:00 +3°C° 0 mm 6 mps 727 mmHg 85%
07:00 +3°C° 0 mm 5 mps 727 mmHg 86%
08:00 +3°C° 0 mm 6 mps 727 mmHg 84%
09:00 +3°C° 0 mm 6 mps 728 mmHg 83%
10:00 +4°C° 0 mm 6 mps 728 mmHg 82%
11:00 +4°C° 0 mm 6 mps 728 mmHg 78%
12:00 +5°C° 0 mm 6 mps 727 mmHg 73%
13:00 +7°C° 0 mm 6 mps 727 mmHg 69%
14:00 +6°C° 0 mm 5 mps 727 mmHg 71%
15:00 +7°C° 0 mm 3 mps 726 mmHg 72%
16:00 +6°C° 0 mm 2 mps 726 mmHg 74%
17:00 +6°C° 0 mm 2 mps 726 mmHg 76%
18:00 +5°C° 0 mm 2 mps 726 mmHg 79%
19:00 +5°C° 0 mm 1 mps 726 mmHg 82%
20:00 +5°C° 0 mm 1 mps 727 mmHg 81%
21:00 +5°C° 0 mm 1 mps 727 mmHg 81%
22:00 +4°C° 0 mm 0 mps 727 mmHg 80%
23:00 +5°C° 0 mm 1 mps 727 mmHg 81%

31 January, Sunday

Time Temperature Precipitation Wind Pressure Humidity
00:00 +5°C° 0 mm 1 mps 727 mmHg 81%
01:00 +5°C° 0 mm 1 mps 727 mmHg 82%
02:00 +4°C° 0.1 mm 2 mps 727 mmHg 85%
03:00 +2°C° 0.1 mm 3 mps 727 mmHg 89%
04:00 0°C° 0.1 mm 4 mps 727 mmHg 93%
05:00 0°C° 0.1 mm 4 mps 728 mmHg 89%
06:00 -1°C° 0.1 mm 4 mps 729 mmHg 86%
07:00 -2°C° 0.1 mm 5 mps 730 mmHg 83%
08:00 -2°C° 0.1 mm 5 mps 730 mmHg 83%
09:00 -2°C° 0.1 mm 4 mps 731 mmHg 82%
10:00 -2°C° 0.1 mm 4 mps 732 mmHg 81%
11:00 -2°C° 0 mm 5 mps 733 mmHg 74%
12:00 -1°C° 0 mm 5 mps 733 mmHg 67%
13:00 -1°C° 0 mm 5 mps 733 mmHg 59%
14:00 -1°C° 0 mm 5 mps 734 mmHg 58%
15:00 -1°C° 0 mm 5 mps 734 mmHg 57%
16:00 -3°C° 0 mm 6 mps 734 mmHg 56%
17:00 -4°C° 0 mm 5 mps 735 mmHg 60%
18:00 -4°C° 0 mm 5 mps 735 mmHg 63%
19:00 -4°C° 0 mm 4 mps 736 mmHg 66%
20:00 -4°C° 0 mm 4 mps 736 mmHg 67%
21:00 -4°C° 0 mm 3 mps 736 mmHg 67%
22:00 -4°C° 0 mm 3 mps 736 mmHg 68%
23:00 -5°C° 0 mm 3 mps 736 mmHg 69%

1 February, Monday

Time Temperature Precipitation Wind Pressure Humidity
00:00 -4°C° 0 mm 2 mps 736 mmHg 70%
01:00 -4°C° 0 mm 2 mps 736 mmHg 70%
02:00 -2°C° 0 mm 1 mps 736 mmHg 71%
03:00 -2°C° 0 mm 1 mps 735 mmHg 72%
04:00 -2°C° 0 mm 1 mps 735 mmHg 73%
05:00 -2°C° 0 mm 1 mps 735 mmHg 72%
06:00 -2°C° 0 mm 1 mps 736 mmHg 71%
07:00 -2°C° 0 mm 1 mps 736 mmHg 69%
08:00 -1°C° 0 mm 1 mps 736 mmHg 63%
09:00 -3°C° 0 mm 2 mps 736 mmHg 57%
10:00 -2°C° 0 mm 3 mps 736 mmHg 52%
11:00 -1°C° 0 mm 3 mps 736 mmHg 49%
12:00 -1°C° 0 mm 4 mps 736 mmHg 46%
13:00 0°C° 0 mm 4 mps 736 mmHg 43%
14:00 -1°C° 0 mm 4 mps 736 mmHg 46%
15:00 -1°C° 0 mm 4 mps 736 mmHg 50%
16:00 -1°C° 0 mm 3 mps 735 mmHg 53%
17:00 -1°C° 0 mm 3 mps 736 mmHg 57%
18:00 -2°C° 0 mm 3 mps 736 mmHg 60%
19:00 -2°C° 0 mm 2 mps 736 mmHg 64%
20:00 -2°C° 0 mm 2 mps 737 mmHg 68%
21:00 -2°C° 0 mm 2 mps 737 mmHg 71%
22:00 -2°C° 0 mm 2 mps 737 mmHg 74%
23:00 -2°C° 0 mm 2 mps 737 mmHg 73%
Show more